Tracking 31027 objects as of 19-Jul-2025
HD Live streaming from Space Station
objects crossing your sky now

DMSP 5D-2 F13 DEB

Track DMSP 5D-2 F13 DEB now!
10-day predictions


NORAD ID: 42282
Int'l Code: 1995-015GY
Perigee: 785.4 km
Apogee: 830.1 km
Inclination: 98.9 °
Period: 100.9 minutes
Semi major axis: 7178 km
RCS: Unknown
Launch date: March 24, 1995
Source: United States (US)
Launch site: AIR FORCE WESTERN TEST RANGE (AFWTR)

Note: This is SATELLITE DEBRIS
Your satellite tracking list
SKOLTECH-B2
Track 1 satellite(s)




NASA's NSSDC Master Catalog

Two Line Element Set (TLE):
1 42282U 95015GY  25197.47820987  .00002758  00000-0  11388-2 0  9992
2 42282  98.9471 205.2337 0031129 199.4903 160.5089 14.27338459527404
Source of the keplerian elements: AFSPC